Morrisville, NC

10:32 AM EST on February 20, 2017 (GMT -0500)
Raleigh-Durham International

Weather History for KRDU - November, 2011

Change the Weather History Date:

Saturday, November 12, 2011

  Actual Average Record
Temperature  
Mean Temperature 49 °F 53 °F  
Max Temperature 65 °F 65 °F 80 °F (2003)
Min Temperature 32 °F 42 °F 22 °F (1957)
Degree Days  
Heating Degree Days 16 12  
Month to date heating degree days 168 126  
Since 1 July heating degree days 381 315  
Cooling Degree Days 0 0  
Month to date cooling degree days 0 1  
Year to date cooling degree days 2111 1721  
Moisture  
Dew Point 29 °F    
Average Humidity 54    
Maximum Humidity 82    
Minimum Humidity 26    
Precipitation  
Precipitation 0.00 in 0.10 in 3.12 in (1975)
Month to date precipitation 1.61 1.26  
Year to date precipitation 39.94 38.41  
Snow  
Snow 0.00 in 0.00 in 1.20 in (1968)
Month to date snowfall 0.0 0.0  
Since 1 July snowfall 0.0 0.0  
Since 1 September snowfall 0.0 0.0  
Snow Depth 0.00 in    
Sea Level Pressure  
Sea Level Pressure 30.25 in    
Wind  
Wind Speed 6 mph (SW)    
Max Wind Speed 16 mph    
Max Gust Speed 21 mph    
Visibility 10 miles    
Events      
T = Trace of Precipitation, MM = Missing Value Source: NWS Daily Summary

Daily Weather History Graph

Daily Weather History Graph

Search for Another Location

Airport or City:

Trip Planner

Search our weather history database for the weather conditions in past years. The results will help you decide how hot, cold, wet, or windy it might be!

Date:

Astronomy

Nov. 12, 2011 Rise Set
Actual Time 6:48 AM EST 5:10 PM EST
Civil Twilight 6:21 AM EST 5:37 PM EST
Nautical Twilight 5:50 AM EST 6:07 PM EST
Astronomical Twilight 5:20 AM EST 6:38 PM EST
Moon 6:28 PM EST (11/12) 8:25 AM EST (11/12)
Length of Visible Light 11h 16m
Length of Day
10h 21m
Full, 97% of the Moon is Illuminated
Nov 12
Full
Nov 18
Last Quarter
Nov 25
New
Dec 2
First Quarter
Dec 10
Full

Hourly Weather History & Observations

Time (EST) Temp. Windchill Dew Point Humidity Pressure Visibility Wind Dir Wind Speed Gust Speed Precip Events Conditions
12:51 AM 36.0 °F - 26.1 °F 67% 30.21 in 10.0 mi Calm Calm - N/A   Partly Cloudy
1:51 AM 36.0 °F - 26.1 °F 67% 30.21 in 10.0 mi Calm Calm - N/A   Clear
2:51 AM 36.0 °F 33.3 °F 27.0 °F 70% 30.22 in 10.0 mi SW 3.5 mph - N/A   Clear
3:51 AM 34.0 °F - 28.0 °F 79% 30.22 in 10.0 mi Calm Calm - N/A   Clear
4:51 AM 35.1 °F - 26.1 °F 70% 30.23 in 10.0 mi Calm Calm - N/A   Clear
5:51 AM 33.1 °F 30.0 °F 26.1 °F 75% 30.25 in 10.0 mi SW 3.5 mph - N/A   Clear
6:51 AM 32.0 °F 26.4 °F 26.1 °F 79% 30.27 in 10.0 mi WSW 5.8 mph - N/A   Clear
7:51 AM 35.1 °F 30.1 °F 28.0 °F 76% 30.29 in 10.0 mi WSW 5.8 mph - N/A   Clear
8:51 AM 43.0 °F 39.5 °F 30.0 °F 60% 30.30 in 10.0 mi SW 5.8 mph - N/A   Clear
9:51 AM 50.0 °F - 30.2 °F 47% 30.30 in 10.0 mi SW 5.8 mph - N/A   Clear
10:51 AM 55.9 °F - 28.9 °F 36% 30.31 in 10.0 mi SW 6.9 mph - N/A   Clear
11:51 AM 60.1 °F - 27.0 °F 28% 30.28 in 10.0 mi SW 6.9 mph - N/A   Clear
12:51 PM 64.4 °F - 28.4 °F 26% 30.25 in 10.0 mi SW 11.5 mph - N/A   Clear
1:51 PM 64.9 °F - 28.9 °F 26% 30.24 in 10.0 mi SSW 11.5 mph - N/A   Clear
2:51 PM 64.9 °F - 30.9 °F 28% 30.22 in 10.0 mi SSW 11.5 mph - N/A   Clear
3:51 PM 64.0 °F - 32.0 °F 30% 30.23 in 10.0 mi SW 15.0 mph 19.6 mph N/A   Clear
4:51 PM 60.1 °F - 32.0 °F 35% 30.23 in 10.0 mi South 9.2 mph - N/A   Clear
5:51 PM 55.9 °F - 32.0 °F 40% 30.25 in 10.0 mi South 6.9 mph - N/A   Scattered Clouds
6:51 PM 54.0 °F - 32.0 °F 43% 30.26 in 10.0 mi South 8.1 mph - N/A   Scattered Clouds
7:51 PM 53.1 °F - 28.9 °F 40% 30.26 in 10.0 mi SSW 8.1 mph - N/A   Scattered Clouds
8:51 PM 51.1 °F - 28.0 °F 41% 30.26 in 10.0 mi SSW 5.8 mph - N/A   Scattered Clouds
9:51 PM 50.0 °F - 28.0 °F 43% 30.27 in 10.0 mi SSW 8.1 mph - N/A   Scattered Clouds
10:51 PM 46.9 °F - 28.0 °F 48% 30.26 in 10.0 mi SW 4.6 mph - N/A   Mostly Cloudy
11:51 PM 46.9 °F - 27.0 °F 46% 30.25 in 10.0 mi WSW 4.6 mph - N/A   Mostly Cloudy